| time (UTC) | temp C | wind direction | speed KPH | gust KPH | rain 1hr cm | rain 24hr cm | rain mn cm | humidity % | barometer mb |
| 20260505063947 | 19 | 37 | 0.0 | 1.6 | 0.00 | 0.00 | 0.00 | 90 | 1009.5 |
| 20260505063443 | 19 | 20 | 0.0 | 0.0 | 0.00 | 0.00 | 0.00 | 90 | 1009.6 |
| 20260505062939 | 19 | 33 | 0.0 | 0.0 | 0.00 | 0.00 | 0.00 | 90 | 1009.4 |
| 20260505062436 | 19 | 35 | 0.0 | 0.0 | 0.00 | 0.00 | 0.00 | 90 | 1009.3 |
| 20260505061933 | 19 | 171 | 1.6 | 1.6 | 0.00 | 0.00 | 0.00 | 89 | 1009.6 |
| 20260505061432 | 19 | 144 | 0.0 | 1.6 | 0.00 | 0.00 | 0.00 | 89 | 1009.7 |
| 20260505060929 | 19 | 178 | 0.0 | 0.0 | 0.00 | 0.00 | 0.00 | 89 | 1009.6 |
| 20260505060426 | 19 | 124 | 1.6 | 1.6 | 0.00 | 0.00 | 0.00 | 89 | 1009.7 |
| 20260505055922 | 19 | 50 | 0.0 | 1.6 | 0.00 | 0.00 | 0.00 | 89 | 1009.6 |
| 20260505055418 | 19 | 68 | 1.6 | 1.6 | 0.00 | 0.00 | 0.00 | 89 | 1009.5 |
| 20260505054915 | 19 | 44 | 0.0 | 1.6 | 0.00 | 0.00 | 0.00 | 89 | 1009.7 |
| 20260505054412 | 19 | 79 | 0.0 | 0.0 | 0.00 | 0.00 | 0.00 | 89 | 1009.7 |
| 20260505053910 | 19 | 52 | 0.0 | 0.0 | 0.00 | 0.00 | 0.00 | 88 | 1009.7 |
| 20260505053407 | 19 | 128 | 0.0 | 0.0 | 0.00 | 0.00 | 0.00 | 88 | 1009.8 |
| 20260505052903 | 19 | 125 | 0.0 | 0.0 | 0.00 | 0.00 | 0.00 | 88 | 1009.8 |
| 20260505052400 | 19 | 130 | 0.0 | 0.0 | 0.00 | 0.00 | 0.00 | 87 | 1009.5 |
| 20260505051858 | 19 | 71 | 0.0 | 0.0 | 0.00 | 0.00 | 0.00 | 87 | 1009.7 |
| 20260505051355 | 19 | 107 | 0.0 | 0.0 | 0.00 | 0.00 | 0.00 | 87 | 1009.8 |
| 20260505050853 | 19 | 86 | 0.0 | 0.0 | 0.00 | 0.00 | 0.00 | 87 | 1009.8 |
| 20260505050351 | 19 | 46 | 0.0 | 0.0 | 0.00 | 0.00 | 0.00 | 87 | 1009.8 |
| 20260505041319 | 18 | 39 | 0.0 | 0.0 | 0.00 | 0.00 | 0.00 | 88 | 1009.9 |
| 20260505040815 | 18 | 35 | 0.0 | 0.0 | 0.00 | 0.00 | 0.00 | 88 | 1009.7 |
| 20260505040313 | 18 | 34 | 0.0 | 0.0 | 0.00 | 0.00 | 0.00 | 88 | 1010.1 |
| 20260505035810 | 18 | 39 | 0.0 | 0.0 | 0.00 | 0.00 | 0.00 | 88 | 1010.1 |
| 20260505035305 | 18 | 34 | 0.0 | 0.0 | 0.00 | 0.00 | 0.00 | 88 | 1010.0 |
| 20260505034803 | 18 | 34 | 0.0 | 0.0 | 0.00 | 0.00 | 0.00 | 88 | 1009.9 |
| 20260505034259 | 18 | 34 | 0.0 | 0.0 | 0.00 | 0.00 | 0.00 | 87 | 1009.9 |
| 20260505033756 | 18 | 33 | 0.0 | 0.0 | 0.00 | 0.00 | 0.00 | 87 | 1009.9 |
| 20260505033254 | 18 | 33 | 0.0 | 0.0 | 0.00 | 0.00 | 0.00 | 87 | 1010.0 |
| 20260505032752 | 18 | 32 | 0.0 | 0.0 | 0.00 | 0.00 | 0.00 | 86 | 1010.0 |
| 20260505032247 | 19 | 32 | 0.0 | 0.0 | 0.00 | 0.00 | 0.00 | 86 | 1009.9 |
| 20260505031745 | 19 | 32 | 0.0 | 0.0 | 0.00 | 0.00 | 0.00 | 85 | 1009.8 |
| 20260505031241 | 19 | 33 | 0.0 | 0.0 | 0.00 | 0.00 | 0.00 | 85 | 1009.8 |
| 20260505030738 | 19 | 37 | 0.0 | 0.0 | 0.00 | 0.00 | 0.00 | 85 | 1009.7 |
| 20260505030234 | 19 | 30 | 0.0 | 0.0 | 0.00 | 0.00 | 0.00 | 84 | 1009.5 |
| 20260505025730 | 20 | 27 | 0.0 | 0.0 | 0.00 | 0.00 | 0.00 | 84 | 1009.3 |
| 20260505025228 | 20 | 24 | 0.0 | 0.0 | 0.00 | 0.00 | 0.00 | 83 | 1009.3 |
| 20260505024726 | 20 | 34 | 0.0 | 0.0 | 0.00 | 0.00 | 0.00 | 82 | 1009.3 |
| 20260505024223 | 20 | 21 | 0.0 | 0.0 | 0.00 | 0.00 | 0.00 | 82 | 1009.4 |
| 20260505023721 | 20 | 29 | 0.0 | 0.0 | 0.00 | 0.00 | 0.00 | 81 | 1009.2 |
| 20260505023218 | 20 | 47 | 0.0 | 0.0 | 0.00 | 0.00 | 0.00 | 82 | 1008.9 |
| 20260505022715 | 20 | 12 | 0.0 | 0.0 | 0.00 | 0.00 | 0.00 | 82 | 1009.1 |
| 20260505022212 | 20 | 15 | 0.0 | 0.0 | 0.00 | 0.00 | 0.00 | 82 | 1009.1 |
| 20260505021709 | 20 | 44 | 0.0 | 0.0 | 0.00 | 0.00 | 0.00 | 82 | 1009.1 |
| 20260505021206 | 20 | 68 | 0.0 | 0.0 | 0.00 | 0.00 | 0.00 | 82 | 1009.1 |
| 20260505020701 | 20 | 13 | 0.0 | 0.0 | 0.00 | 0.00 | 0.00 | 82 | 1009.0 |
| 20260505020157 | 20 | 13 | 0.0 | 0.0 | 0.00 | 0.00 | 0.00 | 81 | 1009.0 |
| 20260505015655 | 20 | 13 | 0.0 | 0.0 | 0.00 | 0.00 | 0.00 | 81 | 1008.9 |
| 20260505015151 | 20 | 13 | 0.0 | 0.0 | 0.00 | 0.00 | 0.00 | 81 | 1009.0 |
| 20260505014648 | 20 | 12 | 0.0 | 0.0 | 0.00 | 0.00 | 0.00 | 80 | 1008.9 |
| 20260505014145 | 20 | 12 | 0.0 | 0.0 | 0.00 | 0.00 | 0.00 | 80 | 1008.7 |
| 20260505013642 | 20 | 12 | 0.0 | 0.0 | 0.00 | 0.00 | 0.00 | 79 | 1008.8 |
| 20260505013139 | 20 | 8 | 0.0 | 0.0 | 0.00 | 0.00 | 0.00 | 78 | 1008.5 |
| 20260505012638 | 21 | 38 | 0.0 | 0.0 | 0.00 | 0.00 | 0.00 | 78 | 1008.6 |
| 20260505012134 | 21 | 38 | 0.0 | 0.0 | 0.00 | 0.00 | 0.00 | 77 | 1008.4 |
| 20260505011630 | 21 | 38 | 0.0 | 0.0 | 0.00 | 0.00 | 0.00 | 76 | 1008.5 |
| 20260505011127 | 21 | 38 | 0.0 | 0.0 | 0.00 | 0.00 | 0.00 | 75 | 1008.5 |
| 20260505010622 | 21 | 38 | 0.0 | 0.0 | 0.00 | 0.00 | 0.00 | 74 | 1008.6 |
| 20260505010119 | 22 | 38 | 0.0 | 0.0 | 0.00 | 0.00 | 0.00 | 72 | 1008.7 |
| 20260505005615 | 22 | 39 | 0.0 | 0.0 | 0.00 | 0.00 | 0.00 | 71 | 1008.9 |
| 20260505005112 | 22 | 40 | 0.0 | 0.0 | 0.00 | 0.00 | 0.00 | 69 | 1008.7 |
| 20260505004609 | 23 | 36 | 0.0 | 0.0 | 0.00 | 0.00 | 0.00 | 68 | 1008.6 |
| 20260505004106 | 23 | 42 | 0.0 | 1.6 | 0.00 | 0.00 | 0.00 | 67 | 1008.7 |
| 20260505003603 | 23 | 184 | 1.6 | 1.6 | 0.00 | 0.00 | 0.00 | 66 | 1008.9 |
| 20260505003101 | 23 | 70 | 0.0 | 1.6 | 0.00 | 0.00 | 0.00 | 67 | 1009.0 |
| 20260505002556 | 24 | 46 | 0.0 | 0.0 | 0.00 | 0.00 | 0.00 | 64 | 1008.7 |
| 20260505002055 | 24 | 48 | 0.0 | 1.6 | 0.00 | 0.00 | 0.00 | 63 | 1008.9 |
| 20260505001552 | 25 | 150 | 0.0 | 1.6 | 0.00 | 0.00 | 0.00 | 62 | 1008.7 |
| 20260505001049 | 25 | 58 | 0.0 | 0.0 | 0.00 | 0.00 | 0.00 | 62 | 1008.7 |
| 20260505000546 | 25 | 166 | 0.0 | 1.6 | 0.00 | 0.00 | 0.00 | 60 | 1008.8 |
| 20260505000044 | 25 | 131 | 1.6 | 1.6 | 0.00 | 0.00 | 0.00 | 61 | 1008.9 |
| 20260504235540 | 25 | 112 | 1.6 | 1.6 | 0.00 | 0.00 | 0.00 | 60 | 1008.8 |
| 20260504235037 | 25 | 338 | 0.0 | 0.0 | 0.00 | 0.00 | 0.00 | 60 | 1008.5 |
| 20260504234534 | 25 | 24 | 0.0 | 1.6 | 0.00 | 0.00 | 0.00 | 59 | 1008.7 |
| 20260504234031 | 25 | 174 | 1.6 | 1.6 | 0.00 | 0.00 | 0.00 | 58 | 1008.7 |
| 20260504233526 | 26 | 105 | 3.2 | 3.2 | 0.00 | 0.00 | 0.00 | 57 | 1008.7 |
| 20260504233023 | 26 | 160 | 1.6 | 1.6 | 0.00 | 0.00 | 0.00 | 56 | 1009.0 |
| 20260504232520 | 26 | 142 | 3.2 | 3.2 | 0.00 | 0.00 | 0.00 | 55 | 1009.1 |
| 20260504232018 | 26 | 157 | 3.2 | 3.2 | 0.00 | 0.00 | 0.00 | 56 | 1009.1 |
| 20260504231514 | 26 | 70 | 1.6 | 1.6 | 0.00 | 0.00 | 0.00 | 55 | 1009.1 |
| 20260504231011 | 26 | 185 | 1.6 | 3.2 | 0.00 | 0.00 | 0.00 | 56 | 1009.4 |
| 20260504230507 | 26 | 83 | 3.2 | 3.2 | 0.00 | 0.00 | 0.00 | 55 | 1009.6 |
| 20260504230006 | 26 | 124 | 4.8 | 4.8 | 0.00 | 0.00 | 0.00 | 54 | 1009.7 |
| 20260504225503 | 26 | 166 | 3.2 | 3.2 | 0.00 | 0.00 | 0.00 | 54 | 1009.6 |
| 20260504225000 | 26 | 37 | 0.0 | 0.0 | 0.00 | 0.00 | 0.00 | 54 | 1009.7 |
| 20260504224456 | 26 | 144 | 1.6 | 1.6 | 0.00 | 0.00 | 0.00 | 53 | 1009.8 |
| 20260504223953 | 26 | 165 | 1.6 | 1.6 | 0.00 | 0.00 | 0.00 | 54 | 1009.8 |
| 20260504223450 | 26 | 148 | 1.6 | 1.6 | 0.00 | 0.00 | 0.00 | 54 | 1009.7 |
| 20260504222945 | 26 | 152 | 1.6 | 3.2 | 0.00 | 0.00 | 0.00 | 53 | 1009.6 |
| 20260504222443 | 26 | 138 | 1.6 | 1.6 | 0.00 | 0.00 | 0.00 | 50 | 1009.9 |
| 20260504221940 | 26 | 225 | 1.6 | 3.2 | 0.00 | 0.00 | 0.00 | 51 | 1010.0 |
| 20260504221437 | 26 | 143 | 1.6 | 1.6 | 0.00 | 0.00 | 0.00 | 51 | 1010.1 |
| 20260504220934 | 27 | 244 | 1.6 | 3.2 | 0.00 | 0.00 | 0.00 | 50 | 1010.1 |
| 20260504220431 | 26 | 200 | 3.2 | 4.8 | 0.00 | 0.00 | 0.00 | 49 | 1009.9 |
| 20260504215928 | 26 | 83 | 1.6 | 1.6 | 0.00 | 0.00 | 0.00 | 49 | 1010.1 |
| 20260504215425 | 27 | 11 | 0.0 | 1.6 | 0.00 | 0.00 | 0.00 | 50 | 1010.5 |
| 20260504214921 | 27 | 111 | 1.6 | 3.2 | 0.00 | 0.00 | 0.00 | 48 | 1010.4 |
| 20260504214418 | 26 | 321 | 3.2 | 4.8 | 0.00 | 0.00 | 0.00 | 48 | 1010.6 |
| 20260504213914 | 26 | 134 | 3.2 | 3.2 | 0.00 | 0.00 | 0.00 | 48 | 1010.5 |
| 20260504213410 | 26 | 162 | 3.2 | 4.8 | 0.00 | 0.00 | 0.00 | 46 | 1010.6 |
| 20260504212908 | 26 | 182 | 4.8 | 4.8 | 0.00 | 0.00 | 0.00 | 48 | 1010.7 |
| 20260504212404 | 26 | 145 | 1.6 | 1.6 | 0.00 | 0.00 | 0.00 | 46 | 1010.8 |
| 20260504211902 | 26 | 200 | 1.6 | 1.6 | 0.00 | 0.00 | 0.00 | 49 | 1010.8 |
| 20260504211357 | 26 | 234 | 1.6 | 1.6 | 0.00 | 0.00 | 0.00 | 48 | 1010.9 |
| 20260504210855 | 26 | 74 | 3.2 | 3.2 | 0.00 | 0.00 | 0.00 | 48 | 1010.8 |
| 20260504210352 | 26 | 28 | 1.6 | 3.2 | 0.00 | 0.00 | 0.00 | 48 | 1011.0 |
| 20260504205849 | 26 | 251 | 1.6 | 1.6 | 0.00 | 0.00 | 0.00 | 48 | 1011.0 |
| 20260504205347 | 26 | 109 | 3.2 | 3.2 | 0.00 | 0.00 | 0.00 | 46 | 1011.3 |
| 20260504204845 | 26 | 147 | 3.2 | 3.2 | 0.00 | 0.00 | 0.00 | 48 | 1011.5 |
| 20260504204343 | 26 | 216 | 3.2 | 3.2 | 0.00 | 0.00 | 0.00 | 48 | 1011.1 |
| 20260504203842 | 26 | 27 | 1.6 | 1.6 | 0.00 | 0.00 | 0.00 | 49 | 1011.4 |
| 20260504203338 | 26 | 136 | 4.8 | 4.8 | 0.00 | 0.00 | 0.00 | 46 | 1011.4 |
| 20260504202834 | 26 | 181 | 3.2 | 3.2 | 0.00 | 0.00 | 0.00 | 45 | 1011.7 |
| 20260504202332 | 26 | 123 | 1.6 | 3.2 | 0.00 | 0.00 | 0.00 | 44 | 1011.9 |
| 20260504201828 | 26 | 1 | 1.6 | 3.2 | 0.00 | 0.00 | 0.00 | 46 | 1012.1 |
| 20260504201326 | 26 | 178 | 1.6 | 3.2 | 0.00 | 0.00 | 0.00 | 45 | 1011.9 |
| 20260504200823 | 26 | 96 | 1.6 | 3.2 | 0.00 | 0.00 | 0.00 | 45 | 1012.0 |
| 20260504200319 | 27 | 182 | 4.8 | 4.8 | 0.00 | 0.00 | 0.00 | 43 | 1012.0 |
| 20260504195815 | 27 | 234 | 1.6 | 3.2 | 0.00 | 0.00 | 0.00 | 45 | 1012.2 |
| 20260504195311 | 27 | 115 | 4.8 | 4.8 | 0.00 | 0.00 | 0.00 | 46 | 1012.3 |
| 20260504194808 | 27 | 286 | 1.6 | 1.6 | 0.00 | 0.00 | 0.00 | 42 | 1012.3 |
| 20260504194304 | 27 | 333 | 0.0 | 0.0 | 0.00 | 0.00 | 0.00 | 46 | 1012.6 |
| 20260504193801 | 27 | 22 | 0.0 | 0.0 | 0.00 | 0.00 | 0.00 | 47 | 1012.4 |
| 20260504193258 | 27 | 203 | 3.2 | 3.2 | 0.00 | 0.00 | 0.00 | 44 | 1012.8 |
| 20260504192757 | 27 | 195 | 3.2 | 3.2 | 0.00 | 0.00 | 0.00 | 44 | 1013.0 |
| 20260504192254 | 27 | 165 | 1.6 | 1.6 | 0.00 | 0.00 | 0.00 | 46 | 1012.5 |
| 20260504191753 | 27 | 174 | 3.2 | 4.8 | 0.00 | 0.00 | 0.00 | 44 | 1013.1 |
| 20260504191249 | 27 | 320 | 1.6 | 1.6 | 0.00 | 0.00 | 0.00 | 46 | 1013.1 |
| 20260504190745 | 27 | 188 | 3.2 | 3.2 | 0.00 | 0.00 | 0.00 | 47 | 1013.1 |
| 20260504190242 | 27 | 274 | 1.6 | 1.6 | 0.00 | 0.00 | 0.00 | 44 | 1013.0 |
| 20260504185738 | 27 | 139 | 3.2 | 4.8 | 0.00 | 0.00 | 0.00 | 45 | 1013.1 |
| 20260504185235 | 26 | 178 | 1.6 | 1.6 | 0.00 | 0.00 | 0.00 | 48 | 1013.2 |
| 20260504184731 | 26 | 18 | 1.6 | 1.6 | 0.00 | 0.00 | 0.00 | 49 | 1013.4 |
| 20260504184227 | 26 | 64 | 1.6 | 1.6 | 0.00 | 0.00 | 0.00 | 46 | 1013.2 |
| 20260504183723 | 27 | 187 | 3.2 | 3.2 | 0.00 | 0.00 | 0.00 | 46 | 1013.5 |
| 20260504183220 | 26 | 219 | 4.8 | 4.8 | 0.00 | 0.00 | 0.00 | 44 | 1013.7 |
| 20260504182718 | 26 | 27 | 0.0 | 0.0 | 0.00 | 0.00 | 0.00 | 48 | 1013.7 |
| 20260504182215 | 26 | 119 | 3.2 | 3.2 | 0.00 | 0.00 | 0.00 | 45 | 1013.8 |
| 20260504181713 | 26 | 153 | 1.6 | 3.2 | 0.00 | 0.00 | 0.00 | 46 | 1013.8 |
| 20260504181210 | 26 | 170 | 6.4 | 9.7 | 0.00 | 0.00 | 0.00 | 46 | 1013.9 |
| 20260504180709 | 26 | 207 | 4.8 | 4.8 | 0.00 | 0.00 | 0.00 | 47 | 1014.1 |
| 20260504180207 | 26 | 354 | 1.6 | 1.6 | 0.00 | 0.00 | 0.00 | 47 | 1013.8 |
| 20260504175704 | 26 | 359 | 0.0 | 1.6 | 0.00 | 0.00 | 0.00 | 48 | 1014.0 |
| 20260504175201 | 25 | 150 | 4.8 | 8.0 | 0.00 | 0.00 | 0.00 | 46 | 1014.2 |
| 20260504174659 | 25 | 135 | 4.8 | 4.8 | 0.00 | 0.00 | 0.00 | 48 | 1014.2 |
| 20260504174156 | 25 | 89 | 3.2 | 3.2 | 0.00 | 0.00 | 0.00 | 48 | 1014.1 |
| 20260504173652 | 26 | 141 | 3.2 | 3.2 | 0.00 | 0.00 | 0.00 | 48 | 1014.2 |
| 20260504173150 | 25 | 323 | 0.0 | 0.0 | 0.00 | 0.00 | 0.00 | 52 | 1013.8 |
| 20260504172646 | 25 | 135 | 1.6 | 3.2 | 0.00 | 0.00 | 0.00 | 49 | 1014.5 |
| 20260504172143 | 25 | 181 | 6.4 | 8.0 | 0.00 | 0.00 | 0.00 | 47 | 1014.2 |
| 20260504171639 | 25 | 159 | 4.8 | 8.0 | 0.00 | 0.00 | 0.00 | 49 | 1014.3 |
| 20260504171137 | 25 | 153 | 1.6 | 3.2 | 0.00 | 0.00 | 0.00 | 50 | 1014.5 |
| 20260504170633 | 25 | 174 | 1.6 | 3.2 | 0.00 | 0.00 | 0.00 | 50 | 1014.5 |
| 20260504170131 | 25 | 155 | 3.2 | 3.2 | 0.00 | 0.00 | 0.00 | 51 | 1014.8 |
| 20260504151016 | 21 | 152 | 3.2 | 3.2 | 0.00 | 0.00 | 0.00 | 65 | 1015.4 |
| 20260504150514 | 21 | 175 | 4.8 | 4.8 | 0.00 | 0.00 | 0.00 | 67 | 1015.5 |
| 20260504140939 | 18 | 192 | 1.6 | 3.2 | 0.00 | 0.00 | 0.00 | 73 | 1015.5 |
| 20260504140436 | 18 | 158 | 1.6 | 1.6 | 0.00 | 0.00 | 0.00 | 77 | 1015.4 |
| 20260504130400 | 13 | 55 | 0.0 | 0.0 | 0.00 | 0.00 | 0.00 | 99 | 1015.7 |
| 20260504110248 | 10 | 38 | 0.0 | 0.0 | 0.00 | 0.00 | 0.00 | 99 | 1015.3 |
| 20260504100211 | 10 | 48 | 0.0 | 0.0 | 0.00 | 0.00 | 0.00 | 99 | 1015.5 |
| 20260504090134 | 11 | 48 | 0.0 | 0.0 | 0.00 | 0.00 | 0.00 | 99 | 1015.2 |
| 20260504081604 | 11 | 48 | 0.0 | 0.0 | 0.00 | 0.00 | 0.00 | 99 | 1015.3 |
| 20260504081100 | 11 | 48 | 0.0 | 0.0 | 0.00 | 0.00 | 0.00 | 99 | 1015.3 |
| 20260504080557 | 11 | 48 | 0.0 | 0.0 | 0.00 | 0.00 | 0.00 | 99 | 1015.5 |